Location: North Evanston
(42.0634°N, 87.6976°W)
Time: 10:29:40
(UTC+00:00)

Explorer 7 - All Passes

Search period start: 15 May 2026 00:00
Search period end: 25 May 2026 00:00
Orbit: 427 x 536 km, 50.2° (Epoch: 14 May)

Date Brightness Start Highest point End Pass type
(mag) Time Alt. Az. Time Alt. Az. Time Alt. Az.
15 May - 09:29:28 10° S 09:31:45 16° SE 09:34:03 10° E visible
15 May - 11:06:03 10° WSW 11:09:36 75° NNW 11:13:19 10° NE daylight
15 May - 12:45:12 10° WNW 12:48:21 26° N 12:51:36 10° NE daylight
15 May - 14:24:16 10° NW 14:27:28 26° N 14:30:48 10° ENE daylight
15 May - 16:02:25 10° NW 16:06:17 66° NNE 16:10:15 10° ESE daylight
15 May - 17:41:13 10° W 17:44:22 23° SW 17:47:33 10° S daylight
16 May - 09:02:01 10° SSE 09:04:04 15° SE 09:06:08 10° E visible
16 May - 10:38:20 10° WSW 10:41:52 81° NNW 10:45:34 10° ENE daylight
16 May - 12:17:27 10° WNW 12:20:35 26° NNW 12:23:50 10° NE daylight
16 May - 13:56:33 10° NW 13:59:42 25° N 14:02:58 10° ENE daylight
16 May - 15:34:43 10° NW 15:38:32 62° NNE 15:42:28 10° ESE daylight
16 May - 17:13:25 10° W 17:16:39 24° SW 17:19:55 10° S daylight
17 May - 08:34:36 10° SSE 08:36:22 13° SE 08:38:10 10° E visible
17 May - 10:10:37 10° WSW 10:14:08 87° NW 10:17:48 10° ENE daylight
17 May - 11:49:41 10° WNW 11:52:49 27° NNW 11:56:04 10° NE daylight
17 May - 13:28:49 10° NW 13:31:56 24° N 13:35:08 10° ENE daylight
17 May - 15:07:00 10° NW 15:10:47 58° NNE 15:14:40 10° ESE daylight
17 May - 16:45:37 10° W 16:48:55 26° SW 16:52:17 10° SSE daylight
18 May - 08:07:15 10° SSE 08:08:40 12° SE 08:10:07 10° ESE visible
18 May - 09:42:54 10° SW 09:46:24 87° SSE 09:50:03 10° ENE visible
18 May - 11:21:54 10° WNW 11:25:03 27° NNW 11:28:17 10° NE daylight
18 May - 13:01:05 10° NW 13:04:09 24° N 13:07:18 10° ENE daylight
18 May - 14:39:17 10° NW 14:43:01 54° NNE 14:46:52 10° ESE daylight
18 May - 16:17:49 10° WNW 16:21:11 28° SW 16:24:37 10° SSE daylight
19 May - 07:40:03 10° SE 07:40:59 11° SE 07:41:54 10° ESE visible
19 May - 09:15:11 10° SW 09:18:40 80° SSE 09:22:16 10° ENE visible
19 May - 10:54:07 10° WNW 10:57:15 28° NNW 11:00:30 10° NE daylight
19 May - 12:33:20 10° NW 12:36:21 23° N 12:39:27 10° ENE daylight
19 May - 14:11:33 10° NW 14:15:14 51° NNE 14:19:02 10° ESE daylight
19 May - 15:50:01 10° WNW 15:53:26 30° SW 15:56:56 10° SSE daylight
20 May - 08:47:28 10° SW 08:50:55 74° SE 08:54:29 10° ENE visible
20 May - 10:26:20 10° WNW 10:29:27 29° NNW 10:32:42 10° NE daylight
20 May - 12:05:34 10° NW 12:08:33 23° N 12:11:36 10° ENE daylight
20 May - 13:43:49 10° NW 13:47:27 47° NNE 13:51:12 10° E daylight
20 May - 15:22:13 10° WNW 15:25:40 33° SW 15:29:14 10° SSE daylight
21 May - 08:19:44 10° SW 08:23:09 67° SE 08:26:42 10° ENE visible
21 May - 09:58:31 10° W 10:01:40 29° NNW 10:04:55 10° NE daylight
21 May - 11:37:48 10° NW 11:40:43 22° N 11:43:44 10° ENE daylight
21 May - 13:16:04 10° NW 13:19:38 45° NNE 13:23:21 10° E daylight
21 May - 14:54:25 10° WNW 14:57:54 35° SW 15:01:30 10° SSE daylight
22 May - 07:52:00 10° SW 07:55:24 61° SE 07:58:53 10° ENE visible
22 May - 09:30:43 10° W 09:33:51 30° NNW 09:37:06 10° NE visible
22 May - 11:10:01 10° NW 11:12:55 22° N 11:15:52 10° ENE daylight
22 May - 12:48:18 10° NW 12:51:50 42° NNE 12:55:29 10° E daylight
22 May - 14:26:36 10° WNW 14:30:08 38° SW 14:33:46 10° SSE daylight
23 May - 07:24:16 10° SW 07:27:38 55° SE 07:31:04 10° ENE visible
23 May - 09:02:53 10° W 09:06:03 31° NNW 09:09:18 10° NE visible
23 May - 10:42:13 10° NW 10:45:04 22° N 10:48:00 10° NE daylight
23 May - 12:20:33 10° NW 12:24:01 40° NNE 12:27:37 10° E daylight
23 May - 13:58:48 10° WNW 14:02:20 41° SW 14:06:00 10° SSE daylight
24 May - 06:56:31 10° SW 06:59:51 50° SE 07:03:15 10° ENE visible
24 May - 08:35:03 10° W 08:38:14 33° NNW 08:41:30 10° NE visible
24 May - 10:14:25 10° NW 10:17:14 21° N 10:20:07 10° NE daylight
24 May - 11:52:46 10° NW 11:56:12 37° NNE 11:59:43 10° E daylight
24 May - 13:30:59 10° WNW 13:34:33 45° SW 13:38:14 10° SE daylight
